Simultaneous Nadir Overpasses (SNOs) Predictions

Prediction of SNOs between GOES-15 and NOAA-20 Satellite Orbit:

Table of predicted SNOs for the next 14.0 days since TLE Epoch: 10/28/2022
Index Date Time (GOES-15) GOES-15 Lat,Lon NOAA-20 Lat,Lon Distance(km) Time Diff (sec)
1 10/29/2022 22:02:12 -0.16,-128.39 -0.41,-129.62 139.35 80
2 10/30/2022 21:46:06 -0.17,-128.39 0.57,-125.08 377.02 80
3 11/01/2022 10:05:14 0.14,-128.46 0.59,-130.35 216.52 80
4 11/02/2022 09:49:09 0.15,-128.45 -0.45,-125.82 299.48 80
5 11/03/2022 22:08:25 -0.13,-128.36 -0.77,-131.12 315.05 80
6 11/04/2022 21:52:20 -0.14,-128.36 0.27,-126.59 201.30 80
7 11/06/2022 10:11:27 0.11,-128.43 0.89,-131.86 391.68 80
8 11/07/2022 09:55:22 0.13,-128.42 -0.10,-127.33 124.32 80
9 11/08/2022 22:14:38 -0.10,-128.32 -1.05,-132.64 491.01 80
10 11/09/2022 21:58:33 -0.12,-128.31 -0.06,-128.10 24.79 80
